Regional Weather Roundup
Issued by NWS

Home | Current Version | Previous Version | Text Only | Print | Product List | Glossary Off
Versions: 1 2 3 4 5 6 7 8 9 10 11 12 13 14 15 16 17 18 19 20 21 22 23 24 25 26 27 28 29 30 31 32 33 34 35 36 37 38 39 40 41 42 43 44 45 46 47 48 49 50

000
ASUS45 KSLC 211210
RWRUT

UTAH REGIONAL WEATHER ROUNDUP
NATIONAL WEATHER SERVICE SALT LAKE CITY UT
500 AM MST TUE FEB 21 2017

UTZ001>011-023>025-211300-

NORTHERN UTAH

CITY           SKY/WX    TMP DP  RH WIND       PRES   REMARKS
BRIGHAM CITY     N/A     51  37  58 S16G25    30.02R
HILL AFB       CLEAR     48  37  65 S17       30.02R
LOGAN          MOCLDY    53  37  54 SW15      29.97S
OGDEN          CLEAR     49  38  65 S23       30.01R
SALT LAKE CITY PTCLDY    52  38  58 S25G39    30.03R
TOOELE VALLEY  PTCLDY    54  36  50 S37G47    30.00S
WENDOVER       CLEAR     52  32  46 SW20G26   29.98S
HEBER CITY     CLOUDY    48  34  57 SW17G24   30.10S
WEST JORDAN    CLEAR     52  46  77 SE32G44   30.04S

$$

UTZ011>015-024>027-211300-

CENTRAL/NORTHEAST UTAH

CITY           SKY/WX    TMP DP  RH WIND       PRES   REMARKS
PROVO AIRPORT  PTCLDY    50  37  61 VRB3      30.14R
MOAB/CANYONLAN CLEAR     40  36  86 CALM      30.23R
DELTA          MOCLDY    46  37  71 S22G30    30.16S
PRICE          CLOUDY    40  36  86 E7        30.23R
ROOSEVELT      PTCLDY    32  30  93 CALM      30.20S
VERNAL         CLEAR     31  29  92 CALM      30.17S

$$

UTZ013>016-019>022-027-211300-

SOUTHERN UTAH

CITY           SKY/WX    TMP DP  RH WIND       PRES   REMARKS
BRYCE CANYON   FOG       36  35  96 SE12      30.33S VSB 1/2 WCI  28
CEDAR CITY     CLEAR     42  38  85 SW14      30.24S
MILFORD        CLOUDY    46  40  79 SW18      30.22S
ST GEORGE      MOSUNNY   48  43  82 SE6       30.28S
HANKSVILLE     CLEAR     36  34  93 NW5       30.25S WCI  32
BLANDING       MOCLDY    41  34  75 CALM      30.43R

$$

REGIONAL REPORTS     COLORADO/ARIZONA

CITY           SKY/WX    TMP DP  RH WIND       PRES   REMARKS
CRAIG, CO      CLOUDY    44  30  57 CALM      30.18F
GRAND JUNCTION PTCLDY    42  35  76 E6        30.26R
RIFLE, CO      CLOUDY    39  35  86 NE5       30.26S
MONTROSE, CO   CLOUDY    40  32  73 SE8       30.32S WCI  34
CORTEZ, CO     CLOUDY    40  37  89 E3        30.36S
COLORADO CITY  CLOUDY    45  41  87 SE5       30.35S
PAGE, AZ       MOCLDY    45  36  70 S3        30.30R
GRAND CANYON   CLOUDY    34  34 100 CALM      30.39S
KINGMAN, AZ    CLEAR     42  39  89 CALM      30.31F
FLAGSTAFF, AZ  CLEAR     32  31  96 VRB3      30.39S

$$

REGIONAL REPORTS    NEVADA/IDAHO/WYOMING

CITY           SKY/WX    TMP DP  RH WIND       PRES   REMARKS
LAS VEGAS, NV  PTCLDY    59  45  59 S12G18    30.18F
ELY, NY        PTCLDY    40  34  79 S21       30.10R WCI  30
ELKO, NV       CLOUDY    43  33  68 W3        29.96R
POCATELLO, ID  CLOUDY    48  37  65 S23G30    29.90R
BURLEY, ID     CLOUDY    49  36  61 SW15      29.89R
FORT BRIDGER,    N/A     40  31  69 SW14      30.08S WCI  33
EVANSTON, WY   CLEAR     38  30  73 SW30G38   30.03S WCI  26
ROCK SPRINGS,  CLEAR     39  29  67 SW14      30.05R WCI  31
KEMMERER, WY     N/A     37  32  81 SW18G28   30.04R WCI  27

$$



USA.gov is the U.S. government's official web portal to all federal, state and local government web resources and services.